| time (UTC) | temp F | wind direction | speed MPH | gust MPH | rain 1hr in | rain 24hr in | rain mn in | humidity % | barometer mb |
| 20260510230543 | 56 | 178 | 3.0 | 6.0 | 0.00 | 0.17 | 0.17 | 40 | 1012.0 |
| 20260510230054 | 56 | 178 | 2.0 | 5.0 | 0.00 | 0.17 | 0.17 | 43 | 1011.9 |
| 20260510225545 | 57 | 178 | 3.0 | 5.0 | 0.00 | 0.17 | 0.17 | 41 | 1011.8 |
| 20260510225045 | 57 | 178 | 2.0 | 6.0 | 0.00 | 0.17 | 0.17 | 38 | 1011.6 |
| 20260510224555 | 57 | 178 | 2.0 | 8.0 | 0.00 | 0.17 | 0.17 | 40 | 1011.5 |
| 20260510224045 | 57 | 98 | 2.0 | 8.0 | 0.00 | 0.17 | 0.17 | 38 | 1011.4 |
| 20260510223545 | 57 | 178 | 3.0 | 8.0 | 0.00 | 0.17 | 0.17 | 35 | 1011.4 |
| 20260510223057 | 57 | 178 | 2.0 | 7.0 | 0.00 | 0.17 | 0.17 | 37 | 1011.4 |
| 20260510222542 | 58 | 178 | 3.0 | 7.0 | 0.00 | 0.17 | 0.17 | 40 | 1011.4 |
| 20260510222043 | 58 | 178 | 3.0 | 7.0 | 0.00 | 0.17 | 0.17 | 39 | 1011.2 |
| 20260510221553 | 58 | 103 | 2.0 | 6.0 | 0.00 | 0.17 | 0.17 | 40 | 1011.1 |
| 20260510221045 | 58 | 178 | 2.0 | 4.0 | 0.00 | 0.17 | 0.17 | 41 | 1011.1 |
| 20260510220547 | 57 | 178 | 2.0 | 5.0 | 0.00 | 0.17 | 0.17 | 43 | 1010.9 |
| 20260510220059 | 57 | 178 | 1.0 | 6.0 | 0.00 | 0.17 | 0.17 | 45 | 1010.8 |
| 20260510215545 | 58 | 178 | 2.0 | 6.0 | 0.00 | 0.18 | 0.17 | 46 | 1010.9 |
| 20260510215045 | 58 | 178 | 3.0 | 6.0 | 0.00 | 0.18 | 0.17 | 47 | 1011.0 |
| 20260510214556 | 58 | 207 | 3.0 | 6.0 | 0.00 | 0.18 | 0.17 | 44 | 1010.7 |
| 20260510214046 | 58 | 193 | 2.0 | 4.0 | 0.00 | 0.18 | 0.17 | 47 | 1010.6 |
| 20260510213546 | 58 | 193 | 2.0 | 5.0 | 0.00 | 0.18 | 0.17 | 48 | 1010.6 |
| 20260510213058 | 58 | 193 | 2.0 | 5.0 | 0.00 | 0.18 | 0.17 | 47 | 1010.4 |
| 20260510212545 | 58 | 250 | 2.0 | 4.0 | 0.00 | 0.18 | 0.17 | 51 | 1010.5 |
| 20260510212042 | 57 | 213 | 1.0 | 4.0 | 0.00 | 0.18 | 0.17 | 57 | 1010.4 |
| 20260510211551 | 57 | 262 | 2.0 | 4.0 | 0.00 | 0.18 | 0.17 | 57 | 1010.4 |
| 20260510211046 | 57 | 193 | 2.0 | 3.0 | 0.00 | 0.18 | 0.17 | 53 | 1010.4 |
| 20260510210542 | 57 | 264 | 1.0 | 4.0 | 0.00 | 0.18 | 0.17 | 55 | 1010.4 |
| 20260510210054 | 57 | 231 | 2.0 | 4.0 | 0.00 | 0.18 | 0.17 | 55 | 1010.3 |
| 20260510205542 | 58 | 240 | 1.0 | 4.0 | 0.00 | 0.20 | 0.17 | 56 | 1010.3 |
| 20260510205042 | 58 | 193 | 1.0 | 4.0 | 0.00 | 0.20 | 0.17 | 52 | 1010.4 |
| 20260510204604 | 58 | 226 | 1.0 | 5.0 | 0.00 | 0.20 | 0.17 | 55 | 1010.2 |
| 20260510204042 | 58 | 194 | 1.0 | 5.0 | 0.00 | 0.20 | 0.17 | 56 | 1010.2 |
| 20260510203542 | 58 | 193 | 1.0 | 5.0 | 0.00 | 0.20 | 0.17 | 55 | 1010.2 |
| 20260510203050 | 58 | 281 | 2.0 | 5.0 | 0.00 | 0.20 | 0.17 | 52 | 1010.2 |
| 20260510202547 | 60 | 193 | 1.0 | 6.0 | 0.00 | 0.20 | 0.17 | 54 | 1010.1 |
| 20260510202045 | 60 | 193 | 2.0 | 7.0 | 0.00 | 0.20 | 0.17 | 50 | 1010.2 |
| 20260510201604 | 59 | 275 | 3.0 | 7.0 | 0.00 | 0.20 | 0.17 | 52 | 1010.2 |
| 20260510201045 | 59 | 267 | 3.0 | 7.0 | 0.00 | 0.20 | 0.17 | 52 | 1010.2 |
| 20260510200545 | 59 | 286 | 2.0 | 10.0 | 0.00 | 0.20 | 0.17 | 58 | 1010.3 |
| 20260510200050 | 59 | 266 | 3.0 | 10.0 | 0.00 | 0.20 | 0.17 | 52 | 1010.4 |
| 20260510195545 | 60 | 276 | 3.0 | 11.0 | 0.00 | 0.20 | 0.17 | 49 | 1010.3 |
| 20260510195045 | 60 | 178 | 4.0 | 11.0 | 0.00 | 0.20 | 0.17 | 54 | 1010.3 |
| 20260510194548 | 60 | 178 | 2.0 | 5.0 | 0.00 | 0.20 | 0.17 | 53 | 1010.3 |
| 20260510194046 | 60 | 178 | 2.0 | 4.0 | 0.00 | 0.20 | 0.17 | 60 | 1010.3 |
| 20260510193542 | 60 | 162 | 1.0 | 4.0 | 0.00 | 0.20 | 0.17 | 56 | 1010.4 |
| 20260510193051 | 59 | 178 | 1.0 | 4.0 | 0.00 | 0.20 | 0.17 | 59 | 1010.3 |
| 20260510192547 | 58 | 172 | 2.0 | 3.0 | 0.00 | 0.20 | 0.17 | 56 | 1010.4 |
| 20260510192042 | 58 | 178 | 2.0 | 3.0 | 0.00 | 0.20 | 0.17 | 59 | 1010.4 |
| 20260510191557 | 59 | 178 | 1.0 | 5.0 | 0.00 | 0.20 | 0.17 | 57 | 1010.5 |
| 20260510191046 | 59 | 148 | 2.0 | 5.0 | 0.00 | 0.20 | 0.17 | 58 | 1010.5 |
| 20260510190545 | 60 | 171 | 2.0 | 5.0 | 0.00 | 0.20 | 0.17 | 53 | 1010.5 |
| 20260510190058 | 60 | 162 | 2.0 | 6.0 | 0.00 | 0.20 | 0.17 | 61 | 1010.4 |
| 20260510185546 | 59 | 178 | 3.0 | 7.0 | 0.00 | 0.20 | 0.17 | 61 | 1010.5 |
| 20260510185045 | 59 | 178 | 2.0 | 7.0 | 0.00 | 0.20 | 0.17 | 57 | 1010.4 |
| 20260510184555 | 60 | 178 | 2.0 | 6.0 | 0.00 | 0.20 | 0.17 | 57 | 1010.5 |
| 20260510184045 | 59 | 172 | 2.0 | 6.0 | 0.00 | 0.20 | 0.17 | 59 | 1010.4 |
| 20260510183548 | 59 | 249 | 2.0 | 10.0 | 0.00 | 0.20 | 0.17 | 63 | 1010.4 |
| 20260510183049 | 58 | 254 | 4.0 | 10.0 | 0.00 | 0.20 | 0.17 | 60 | 1010.4 |
| 20260510182546 | 59 | 163 | 1.0 | 5.0 | 0.00 | 0.20 | 0.17 | 60 | 1010.6 |
| 20260510182045 | 58 | 162 | 2.0 | 5.0 | 0.00 | 0.20 | 0.17 | 63 | 1010.6 |
| 20260510181554 | 57 | 174 | 2.0 | 6.0 | 0.00 | 0.20 | 0.17 | 64 | 1010.6 |
| 20260510181050 | 57 | 178 | 3.0 | 7.0 | 0.00 | 0.20 | 0.17 | 62 | 1010.6 |
| 20260510180545 | 56 | 178 | 4.0 | 7.0 | 0.00 | 0.20 | 0.17 | 63 | 1010.7 |
| 20260510180050 | 57 | 246 | 3.0 | 7.0 | 0.00 | 0.20 | 0.17 | 63 | 1010.7 |
| 20260510175545 | 57 | 193 | 2.0 | 7.0 | 0.00 | 0.22 | 0.17 | 63 | 1010.6 |
| 20260510175044 | 56 | 249 | 2.0 | 7.0 | 0.00 | 0.22 | 0.17 | 66 | 1010.7 |
| 20260510174554 | 56 | 211 | 2.0 | 5.0 | 0.00 | 0.22 | 0.17 | 77 | 1010.6 |
| 20260510174042 | 55 | 245 | 2.0 | 5.0 | 0.00 | 0.22 | 0.17 | 78 | 1010.6 |
| 20260510173541 | 54 | 263 | 3.0 | 5.0 | 0.00 | 0.22 | 0.17 | 83 | 1010.6 |
| 20260510173105 | 54 | 254 | 2.0 | 7.0 | 0.00 | 0.22 | 0.17 | 84 | 1010.5 |
| 20260510172546 | 53 | 193 | 2.0 | 7.0 | 0.00 | 0.22 | 0.17 | 81 | 1010.5 |
| 20260510172042 | 52 | 234 | 2.0 | 5.0 | 0.00 | 0.22 | 0.17 | 83 | 1010.6 |
| 20260510171548 | 52 | 224 | 2.0 | 5.0 | 0.00 | 0.22 | 0.17 | 82 | 1010.7 |
| 20260510171044 | 52 | 255 | 2.0 | 6.0 | 0.00 | 0.22 | 0.17 | 85 | 1010.8 |
| 20260510170545 | 52 | 253 | 2.0 | 6.0 | 0.00 | 0.22 | 0.17 | 87 | 1010.7 |
| 20260510170051 | 51 | 266 | 3.0 | 6.0 | 0.00 | 0.22 | 0.17 | 86 | 1010.8 |
| 20260510165545 | 50 | 229 | 2.0 | 5.0 | 0.00 | 0.24 | 0.17 | 87 | 1010.9 |
| 20260510165045 | 51 | 274 | 1.0 | 5.0 | 0.00 | 0.24 | 0.17 | 88 | 1010.8 |
| 20260510164607 | 51 | 211 | 2.0 | 5.0 | 0.00 | 0.24 | 0.17 | 88 | 1010.6 |
| 20260510164045 | 52 | 253 | 1.0 | 4.0 | 0.00 | 0.24 | 0.17 | 89 | 1010.6 |
| 20260510163544 | 53 | 0 | 1.0 | 4.0 | 0.00 | 0.24 | 0.17 | 89 | 1010.6 |
| 20260510163050 | 53 | 0 | 1.0 | 4.0 | 0.00 | 0.24 | 0.17 | 88 | 1010.5 |
| 20260510162544 | 54 | 252 | 2.0 | 4.0 | 0.00 | 0.24 | 0.17 | 89 | 1010.4 |
| 20260510162046 | 54 | 224 | 2.0 | 6.0 | 0.00 | 0.24 | 0.17 | 91 | 1010.4 |
| 20260510161552 | 53 | 193 | 2.0 | 6.0 | 0.01 | 0.24 | 0.17 | 90 | 1010.2 |
| 20260510161045 | 53 | 174 | 1.0 | 6.0 | 0.01 | 0.24 | 0.17 | 90 | 1010.4 |
| 20260510160545 | 53 | 178 | 1.0 | 6.0 | 0.02 | 0.24 | 0.17 | 88 | 1010.4 |
| 20260510160057 | 54 | 178 | 1.0 | 4.0 | 0.02 | 0.24 | 0.17 | 93 | 1010.2 |
| 20260510155545 | 53 | 178 | 2.0 | 5.0 | 0.03 | 0.24 | 0.17 | 93 | 1010.2 |
| 20260510155044 | 53 | 178 | 1.0 | 5.0 | 0.03 | 0.24 | 0.17 | 92 | 1010.0 |
| 20260510154553 | 53 | 178 | 1.0 | 3.0 | 0.04 | 0.24 | 0.17 | 95 | 1010.0 |
| 20260510154043 | 52 | 167 | 0.0 | 1.0 | 0.05 | 0.24 | 0.17 | 96 | 1010.1 |
| 20260510153545 | 51 | 178 | 0.0 | 1.0 | 0.06 | 0.24 | 0.17 | 95 | 1010.0 |
| 20260510153056 | 51 | 178 | 0.0 | 1.0 | 0.09 | 0.24 | 0.17 | 95 | 1010.0 |
| 20260510152545 | 51 | 178 | 0.0 | 2.0 | 0.13 | 0.24 | 0.17 | 96 | 1009.9 |
| 20260510152044 | 50 | 178 | 0.0 | 3.0 | 0.15 | 0.24 | 0.17 | 96 | 1010.0 |
| 20260510151603 | 50 | 175 | 0.0 | 3.0 | 0.14 | 0.23 | 0.16 | 95 | 1010.2 |
| 20260510151046 | 50 | 0 | 0.0 | 3.0 | 0.14 | 0.23 | 0.16 | 95 | 1010.4 |
| 20260510150545 | 49 | 178 | 0.0 | 2.0 | 0.13 | 0.22 | 0.15 | 95 | 1010.3 |
| 20260510145545 | 49 | 146 | 0.0 | 2.0 | 0.12 | 0.21 | 0.14 | 95 | 1010.1 |
| 20260510145045 | 49 | 155 | 0.0 | 1.0 | 0.12 | 0.21 | 0.14 | 95 | 1010.2 |
| 20260510144554 | 49 | 178 | 0.0 | 1.0 | 0.11 | 0.20 | 0.13 | 95 | 1010.2 |
| 20260510144042 | 49 | 178 | 0.0 | 2.0 | 0.10 | 0.19 | 0.12 | 94 | 1010.1 |
| 20260510143545 | 50 | 0 | 0.0 | 3.0 | 0.09 | 0.18 | 0.11 | 93 | 1010.1 |
| 20260510143053 | 50 | 150 | 1.0 | 3.0 | 0.06 | 0.15 | 0.08 | 92 | 1010.1 |
| 20260510142544 | 51 | 178 | 0.0 | 2.0 | 0.02 | 0.11 | 0.04 | 92 | 1009.9 |
| 20260510142045 | 51 | 178 | 0.0 | 2.0 | 0.00 | 0.09 | 0.02 | 92 | 1009.5 |
| 20260510141553 | 51 | 147 | 0.0 | 3.0 | 0.00 | 0.09 | 0.02 | 91 | 1009.4 |
| 20260510141045 | 51 | 0 | 0.0 | 3.0 | 0.00 | 0.09 | 0.02 | 90 | 1009.4 |
| 20260510140546 | 51 | 178 | 0.0 | 2.0 | 0.00 | 0.09 | 0.02 | 90 | 1009.5 |
| 20260510140046 | 52 | 147 | 0.0 | 3.0 | 0.00 | 0.09 | 0.02 | 92 | 1009.6 |
| 20260510135546 | 52 | 178 | 0.0 | 3.0 | 0.00 | 0.09 | 0.02 | 90 | 1009.6 |
| 20260510135045 | 52 | 178 | 1.0 | 2.0 | 0.00 | 0.09 | 0.02 | 92 | 1009.6 |
| 20260510134554 | 52 | 167 | 0.0 | 1.0 | 0.00 | 0.09 | 0.02 | 94 | 1009.3 |
| 20260510134045 | 51 | 178 | 0.0 | 1.0 | 0.00 | 0.09 | 0.02 | 96 | 1009.4 |
| 20260510133548 | 51 | 174 | 0.0 | 1.0 | 0.00 | 0.09 | 0.02 | 98 | 1009.5 |
| 20260510133053 | 50 | 75 | 0.0 | 1.0 | 0.00 | 0.09 | 0.02 | 97 | 1009.6 |
| 20260510132545 | 50 | 74 | 0.0 | 1.0 | 0.00 | 0.09 | 0.02 | 98 | 1009.4 |
| 20260510132043 | 49 | 0 | 0.0 | 1.0 | 0.00 | 0.09 | 0.02 | 98 | 1009.6 |
| 20260510131555 | 49 | 0 | 0.0 | 1.0 | 0.00 | 0.09 | 0.02 | 98 | 1009.4 |
| 20260510131046 | 49 | 298 | 0.0 | 1.0 | 0.00 | 0.09 | 0.02 | 98 | 1009.4 |
| 20260510130545 | 48 | 0 | 0.0 | 1.0 | 0.00 | 0.09 | 0.02 | 98 | 1009.4 |
| 20260510130054 | 48 | 0 | 0.0 | 2.0 | 0.00 | 0.09 | 0.02 | 98 | 1009.4 |
| 20260510125547 | 48 | 0 | 0.0 | 2.0 | 0.00 | 0.09 | 0.02 | 98 | 1009.4 |
| 20260510125041 | 48 | 0 | 0.0 | 1.0 | 0.00 | 0.09 | 0.02 | 98 | 1009.2 |
| 20260510124552 | 48 | 193 | 0.0 | 1.0 | 0.00 | 0.09 | 0.02 | 98 | 1009.3 |
| 20260510124045 | 48 | 239 | 0.0 | 1.0 | 0.00 | 0.09 | 0.02 | 98 | 1009.4 |
| 20260510123545 | 48 | 239 | 0.0 | 1.0 | 0.00 | 0.09 | 0.02 | 98 | 1009.4 |
| 20260510123053 | 48 | 239 | 0.0 | 1.0 | 0.00 | 0.09 | 0.02 | 98 | 1009.5 |
| 20260510122545 | 48 | 0 | 0.0 | 2.0 | 0.00 | 0.09 | 0.02 | 98 | 1009.5 |
| 20260510122045 | 48 | 0 | 0.0 | 2.0 | 0.00 | 0.09 | 0.02 | 98 | 1009.5 |
| 20260510121555 | 48 | 195 | 0.0 | 2.0 | 0.00 | 0.09 | 0.02 | 98 | 1009.5 |
| 20260510121045 | 47 | 193 | 0.0 | 2.0 | 0.00 | 0.09 | 0.02 | 98 | 1009.5 |
| 20260510120548 | 47 | 241 | 0.0 | 1.0 | 0.00 | 0.09 | 0.02 | 98 | 1009.5 |
| 20260510120051 | 47 | 0 | 0.0 | 0.0 | 0.00 | 0.09 | 0.02 | 98 | 1009.3 |
| 20260510115545 | 47 | 0 | 0.0 | 0.0 | 0.00 | 0.09 | 0.02 | 98 | 1009.3 |
| 20260510115042 | 47 | 0 | 0.0 | 1.0 | 0.00 | 0.09 | 0.02 | 98 | 1009.3 |
| 20260510114603 | 47 | 0 | 0.0 | 1.0 | 0.00 | 0.09 | 0.02 | 98 | 1009.3 |
| 20260510114044 | 47 | 0 | 0.0 | 1.0 | 0.00 | 0.09 | 0.02 | 98 | 1009.1 |
| 20260510113544 | 47 | 0 | 0.0 | 1.0 | 0.00 | 0.09 | 0.02 | 98 | 1009.1 |
| 20260510113050 | 46 | 0 | 0.0 | 1.0 | 0.00 | 0.09 | 0.02 | 98 | 1009.1 |
| 20260510112545 | 46 | 0 | 0.0 | 1.0 | 0.00 | 0.09 | 0.02 | 98 | 1009.0 |
| 20260510112045 | 46 | 0 | 0.0 | 1.0 | 0.00 | 0.09 | 0.02 | 98 | 1008.9 |
| 20260510111546 | 45 | 23 | 0.0 | 2.0 | 0.00 | 0.09 | 0.02 | 98 | 1008.9 |
| 20260510111044 | 45 | 0 | 0.0 | 2.0 | 0.00 | 0.09 | 0.02 | 98 | 1008.8 |
| 20260510110545 | 45 | 0 | 0.0 | 2.0 | 0.00 | 0.09 | 0.02 | 98 | 1008.9 |
| 20260510110052 | 45 | 0 | 0.0 | 2.0 | 0.00 | 0.09 | 0.02 | 98 | 1008.9 |
| 20260510105541 | 45 | 0 | 0.0 | 0.0 | 0.00 | 0.09 | 0.02 | 98 | 1008.9 |
| 20260510105046 | 45 | 0 | 0.0 | 1.0 | 0.00 | 0.09 | 0.02 | 98 | 1008.9 |
| 20260510104606 | 45 | 0 | 0.0 | 1.0 | 0.00 | 0.09 | 0.02 | 98 | 1008.7 |
| 20260510104045 | 45 | 0 | 0.0 | 1.0 | 0.00 | 0.09 | 0.02 | 98 | 1008.5 |
| 20260510103542 | 44 | 0 | 0.0 | 1.0 | 0.00 | 0.09 | 0.02 | 98 | 1008.3 |
| 20260510103100 | 44 | 0 | 0.0 | 1.0 | 0.00 | 0.09 | 0.02 | 98 | 1008.1 |
| 20260510102545 | 44 | 0 | 0.0 | 1.0 | 0.00 | 0.09 | 0.02 | 98 | 1008.4 |
| 20260510102042 | 44 | 0 | 0.0 | 1.0 | 0.00 | 0.09 | 0.02 | 98 | 1008.4 |
| 20260510101552 | 44 | 0 | 0.0 | 1.0 | 0.00 | 0.09 | 0.02 | 98 | 1008.3 |
| 20260510101044 | 44 | 0 | 0.0 | 1.0 | 0.00 | 0.09 | 0.02 | 98 | 1008.4 |
| 20260510100545 | 44 | 0 | 0.0 | 1.0 | 0.00 | 0.09 | 0.02 | 98 | 1008.5 |
| 20260510100057 | 44 | 0 | 0.0 | 1.0 | 0.00 | 0.09 | 0.02 | 98 | 1008.4 |
| 20260510095547 | 44 | 0 | 0.0 | 0.0 | 0.00 | 0.09 | 0.02 | 98 | 1008.3 |
| 20260510095044 | 44 | 0 | 0.0 | 1.0 | 0.00 | 0.09 | 0.02 | 98 | 1008.0 |
| 20260510094549 | 44 | 0 | 0.0 | 3.0 | 0.00 | 0.09 | 0.02 | 98 | 1007.9 |
| 20260510094047 | 45 | 0 | 0.0 | 3.0 | 0.00 | 0.09 | 0.02 | 98 | 1007.8 |
| 20260510093547 | 45 | 32 | 0.0 | 3.0 | 0.00 | 0.09 | 0.02 | 98 | 1007.8 |
| 20260510093051 | 45 | 0 | 0.0 | 1.0 | 0.00 | 0.09 | 0.02 | 98 | 1007.6 |
| 20260510092545 | 44 | 0 | 0.0 | 1.0 | 0.00 | 0.09 | 0.02 | 98 | 1007.5 |
| 20260510092045 | 44 | 0 | 0.0 | 1.0 | 0.00 | 0.09 | 0.02 | 98 | 1007.6 |
| 20260510091553 | 44 | 0 | 0.0 | 1.0 | 0.00 | 0.09 | 0.02 | 98 | 1007.6 |
| 20260510091045 | 44 | 0 | 0.0 | 0.0 | 0.00 | 0.09 | 0.02 | 98 | 1007.4 |
| 20260510090545 | 44 | 0 | 0.0 | 2.0 | 0.00 | 0.09 | 0.02 | 98 | 1007.5 |
| 20260510090056 | 44 | 15 | 0.0 | 2.0 | 0.01 | 0.09 | 0.02 | 98 | 1007.6 |
| 20260510085543 | 44 | 356 | 0.0 | 2.0 | 0.01 | 0.09 | 0.02 | 98 | 1007.6 |
| 20260510085046 | 44 | 327 | 0.0 | 2.0 | 0.01 | 0.09 | 0.02 | 98 | 1007.7 |
| 20260510084601 | 44 | 16 | 0.0 | 2.0 | 0.01 | 0.09 | 0.02 | 98 | 1007.4 |
| 20260510084045 | 44 | 330 | 0.0 | 1.0 | 0.02 | 0.09 | 0.02 | 98 | 1007.3 |
| 20260510083545 | 44 | 57 | 0.0 | 2.0 | 0.02 | 0.09 | 0.02 | 98 | 1007.2 |
| 20260510083054 | 44 | 43 | 0.0 | 2.0 | 0.02 | 0.09 | 0.02 | 98 | 1007.4 |
| 20260510082541 | 44 | 15 | 0.0 | 1.0 | 0.02 | 0.09 | 0.02 | 98 | 1007.4 |
| 20260510082041 | 44 | 124 | 0.0 | 1.0 | 0.02 | 0.09 | 0.02 | 98 | 1007.8 |
| 20260510081554 | 44 | 0 | 0.0 | 1.0 | 0.02 | 0.09 | 0.02 | 98 | 1007.9 |
| 20260510081044 | 44 | 163 | 0.0 | 0.0 | 0.02 | 0.09 | 0.02 | 98 | 1008.0 |
| 20260510080541 | 44 | 0 | 0.0 | 1.0 | 0.02 | 0.09 | 0.02 | 98 | 1008.0 |
| 20260510080048 | 44 | 178 | 0.0 | 1.0 | 0.01 | 0.08 | 0.01 | 98 | 1008.0 |
| 20260510075541 | 44 | 0 | 0.0 | 1.0 | 0.01 | 0.08 | 0.01 | 98 | 1008.0 |
| 20260510075041 | 44 | 0 | 0.0 | 1.0 | 0.01 | 0.08 | 0.01 | 98 | 1008.1 |
| 20260510074616 | 44 | 0 | 0.0 | 1.0 | 0.01 | 0.08 | 0.01 | 98 | 1008.1 |
| 20260510074045 | 44 | 0 | 0.0 | 1.0 | 0.00 | 0.07 | 0.00 | 98 | 1008.1 |
| 20260510073548 | 44 | 0 | 0.0 | 1.0 | 0.00 | 0.07 | 0.00 | 98 | 1008.0 |
| 20260510073051 | 44 | 81 | 0.0 | 1.0 | 0.00 | 0.07 | 0.00 | 98 | 1008.1 |
| 20260510072545 | 44 | 0 | 0.0 | 1.0 | 0.00 | 0.07 | 0.00 | 98 | 1008.0 |
| 20260510072041 | 44 | 80 | 0.0 | 1.0 | 0.00 | 0.07 | 0.00 | 98 | 1007.8 |
| 20260510071601 | 44 | 0 | 0.0 | 2.0 | 0.00 | 0.07 | 0.00 | 98 | 1007.9 |
| 20260510071047 | 44 | 8 | 0.0 | 3.0 | 0.00 | 0.07 | 0.00 | 98 | 1007.9 |
| 20260510070542 | 44 | 0 | 0.0 | 3.0 | 0.00 | 0.07 | 0.00 | 98 | 1007.8 |
| 20260510070051 | 44 | 0 | 0.0 | 2.0 | 0.00 | 0.07 | 0.00 | 98 | 1008.1 |
| 20260510065542 | 44 | 24 | 0.0 | 2.0 | 0.00 | 0.07 | 0.00 | 98 | 1008.1 |
| 20260510065045 | 44 | 0 | 0.0 | 2.0 | 0.00 | 0.07 | 0.00 | 98 | 1008.2 |
| 20260510064606 | 44 | 0 | 0.0 | 1.0 | 0.00 | 0.07 | 0.00 | 98 | 1008.1 |
| 20260510064042 | 44 | 0 | 0.0 | 2.0 | 0.00 | 0.07 | 0.00 | 98 | 1008.1 |
| 20260510063544 | 44 | 0 | 0.0 | 2.0 | 0.00 | 0.07 | 0.00 | 98 | 1008.0 |
| 20260510063100 | 44 | 323 | 0.0 | 1.0 | 0.00 | 0.07 | 0.00 | 98 | 1008.1 |
| 20260510062542 | 44 | 0 | 0.0 | 1.0 | 0.00 | 0.07 | 0.00 | 98 | 1007.9 |
| 20260510062045 | 44 | 328 | 0.0 | 2.0 | 0.00 | 0.07 | 0.00 | 98 | 1008.1 |
| 20260510061547 | 44 | 193 | 0.0 | 2.0 | 0.00 | 0.07 | 0.00 | 98 | 1008.1 |
| 20260510061044 | 44 | 0 | 0.0 | 2.0 | 0.00 | 0.07 | 0.00 | 98 | 1008.2 |
| 20260510060544 | 44 | 1 | 0.0 | 2.0 | 0.00 | 0.07 | 0.00 | 98 | 1008.1 |
| 20260510060056 | 44 | 0 | 0.0 | 2.0 | 0.00 | 0.07 | 0.00 | 98 | 1008.1 |
| 20260510055545 | 44 | 0 | 0.0 | 3.0 | 0.00 | 0.07 | 0.00 | 98 | 1008.0 |
| 20260510055045 | 44 | 32 | 0.0 | 3.0 | 0.00 | 0.07 | 0.00 | 98 | 1008.2 |
| 20260510054547 | 44 | 0 | 0.0 | 3.0 | 0.00 | 0.07 | 0.00 | 98 | 1008.3 |
| 20260510054045 | 44 | 315 | 0.0 | 2.0 | 0.00 | 0.07 | 0.00 | 98 | 1008.3 |
| 20260510053544 | 44 | 0 | 0.0 | 3.0 | 0.00 | 0.07 | 0.00 | 98 | 1008.3 |
| 20260510053047 | 44 | 0 | 0.0 | 3.0 | 0.00 | 0.07 | 0.00 | 98 | 1008.3 |
| 20260510052544 | 44 | 342 | 0.0 | 3.0 | 0.00 | 0.07 | 0.00 | 98 | 1008.3 |
| 20260510052045 | 44 | 0 | 0.0 | 2.0 | 0.00 | 0.07 | 0.00 | 98 | 1008.5 |
| 20260510051555 | 44 | 20 | 0.0 | 2.0 | 0.00 | 0.07 | 0.00 | 98 | 1008.4 |
| 20260510051042 | 44 | 44 | 0.0 | 3.0 | 0.00 | 0.07 | 0.00 | 98 | 1008.2 |
| 20260510050545 | 44 | 0 | 1.0 | 3.0 | 0.00 | 0.07 | 0.00 | 98 | 1008.3 |
| 20260510050052 | 44 | 354 | 1.0 | 3.0 | 0.00 | 0.07 | 0.00 | 98 | 1008.2 |
| 20260510045544 | 44 | 32 | 0.0 | 4.0 | 0.00 | 0.07 | 0.00 | 98 | 1008.2 |
| 20260510045044 | 43 | 329 | 1.0 | 4.0 | 0.00 | 0.07 | 0.00 | 98 | 1008.3 |
| 20260510044550 | 43 | 193 | 0.0 | 3.0 | 0.00 | 0.07 | 0.00 | 98 | 1008.4 |
| 20260510044044 | 43 | 0 | 0.0 | 3.0 | 0.00 | 0.07 | 0.00 | 98 | 1008.5 |
| 20260510043544 | 43 | 0 | 0.0 | 2.0 | 0.00 | 0.07 | 0.00 | 98 | 1008.6 |
| 20260510043101 | 43 | 0 | 0.0 | 3.0 | 0.00 | 0.07 | 0.00 | 98 | 1008.4 |
| 20260510042543 | 43 | 307 | 0.0 | 4.0 | 0.00 | 0.07 | 0.00 | 98 | 1008.3 |
| 20260510042041 | 43 | 295 | 1.0 | 5.0 | 0.00 | 0.07 | 0.00 | 98 | 1008.2 |
| 20260510041608 | 43 | 17 | 1.0 | 7.0 | 0.00 | 0.07 | 0.00 | 98 | 1008.0 |
| 20260510041041 | 43 | 193 | 1.0 | 7.0 | 0.00 | 0.07 | 0.00 | 98 | 1008.1 |
| 20260510040545 | 43 | 0 | 0.0 | 2.0 | 0.00 | 0.07 | 0.00 | 98 | 1008.1 |
| 20260510040055 | 43 | 329 | 0.0 | 2.0 | 0.00 | 0.07 | 0.00 | 98 | 1008.2 |
| 20260510035544 | 43 | 313 | 0.0 | 2.0 | 0.00 | 0.07 | 0.07 | 98 | 1008.3 |
| 20260510035044 | 43 | 27 | 0.0 | 2.0 | 0.00 | 0.07 | 0.07 | 98 | 1008.4 |
| 20260510034555 | 43 | 27 | 0.0 | 1.0 | 0.00 | 0.07 | 0.07 | 98 | 1008.4 |
| 20260510034049 | 43 | 323 | 0.0 | 1.0 | 0.00 | 0.07 | 0.07 | 98 | 1008.6 |
| 20260510033548 | 43 | 0 | 0.0 | 2.0 | 0.00 | 0.07 | 0.07 | 98 | 1008.5 |
| 20260510033055 | 43 | 16 | 0.0 | 2.0 | 0.00 | 0.07 | 0.07 | 98 | 1008.5 |
| 20260510032550 | 43 | 56 | 0.0 | 3.0 | 0.00 | 0.07 | 0.07 | 98 | 1008.3 |
| 20260510032051 | 43 | 326 | 1.0 | 4.0 | 0.00 | 0.07 | 0.07 | 98 | 1008.4 |
| 20260510031556 | 43 | 40 | 1.0 | 4.0 | 0.00 | 0.07 | 0.07 | 98 | 1008.4 |
| 20260510031046 | 43 | 0 | 0.0 | 4.0 | 0.00 | 0.07 | 0.07 | 98 | 1008.5 |
| 20260510030550 | 43 | 321 | 1.0 | 4.0 | 0.00 | 0.07 | 0.07 | 98 | 1008.5 |
| 20260510030052 | 43 | 15 | 0.0 | 3.0 | 0.00 | 0.07 | 0.07 | 98 | 1008.5 |
| 20260510025546 | 43 | 0 | 1.0 | 3.0 | 0.00 | 0.07 | 0.07 | 98 | 1008.6 |
| 20260510025045 | 43 | 0 | 1.0 | 4.0 | 0.00 | 0.07 | 0.07 | 98 | 1008.7 |
| 20260510024556 | 43 | 27 | 0.0 | 4.0 | 0.00 | 0.07 | 0.07 | 98 | 1008.6 |
| 20260510024045 | 43 | 350 | 1.0 | 5.0 | 0.00 | 0.07 | 0.07 | 98 | 1008.7 |
| 20260510023545 | 43 | 18 | 1.0 | 5.0 | 0.00 | 0.07 | 0.07 | 98 | 1008.7 |
| 20260510023049 | 43 | 193 | 0.0 | 8.0 | 0.00 | 0.07 | 0.07 | 98 | 1008.7 |
| 20260510022546 | 43 | 335 | 0.0 | 8.0 | 0.00 | 0.07 | 0.07 | 97 | 1008.5 |
| 20260510022047 | 43 | 193 | 0.0 | 4.0 | 0.00 | 0.07 | 0.07 | 97 | 1008.6 |
| 20260510021548 | 43 | 342 | 1.0 | 4.0 | 0.00 | 0.07 | 0.07 | 97 | 1008.6 |
| 20260510021049 | 43 | 292 | 0.0 | 4.0 | 0.00 | 0.07 | 0.07 | 97 | 1008.7 |
| 20260510020549 | 42 | 0 | 0.0 | 4.0 | 0.00 | 0.07 | 0.07 | 97 | 1008.7 |
| 20260510020056 | 42 | 0 | 1.0 | 4.0 | 0.00 | 0.07 | 0.07 | 97 | 1008.5 |
| 20260510015546 | 42 | 297 | 1.0 | 3.0 | 0.00 | 0.07 | 0.07 | 97 | 1008.4 |
| 20260510015046 | 42 | 344 | 0.0 | 2.0 | 0.00 | 0.07 | 0.07 | 97 | 1008.6 |
| 20260510014557 | 42 | 8 | 0.0 | 3.0 | 0.00 | 0.07 | 0.07 | 97 | 1008.8 |
| 20260510014045 | 42 | 307 | 0.0 | 3.0 | 0.00 | 0.07 | 0.07 | 97 | 1009.0 |
| 20260510013545 | 42 | 0 | 0.0 | 3.0 | 0.00 | 0.07 | 0.07 | 97 | 1008.9 |
| 20260510013106 | 42 | 356 | 0.0 | 3.0 | 0.00 | 0.07 | 0.07 | 97 | 1008.9 |
| 20260510012548 | 42 | 270 | 0.0 | 4.0 | 0.00 | 0.07 | 0.07 | 97 | 1009.1 |
| 20260510012045 | 42 | 301 | 0.0 | 4.0 | 0.00 | 0.07 | 0.07 | 97 | 1008.9 |
| 20260510011552 | 42 | 41 | 1.0 | 3.0 | 0.00 | 0.07 | 0.07 | 97 | 1008.9 |
| 20260510011049 | 43 | 0 | 0.0 | 4.0 | 0.00 | 0.07 | 0.07 | 97 | 1009.2 |
| 20260510010545 | 42 | 0 | 0.0 | 4.0 | 0.00 | 0.07 | 0.07 | 97 | 1009.2 |
| 20260510010101 | 43 | 68 | 1.0 | 3.0 | 0.00 | 0.07 | 0.07 | 97 | 1009.0 |
| 20260510005546 | 42 | 307 | 0.0 | 3.0 | 0.00 | 0.07 | 0.07 | 97 | 1009.1 |
| 20260510005046 | 43 | 4 | 1.0 | 3.0 | 0.00 | 0.07 | 0.07 | 97 | 1008.9 |
| 20260510004559 | 43 | 30 | 0.0 | 2.0 | 0.00 | 0.07 | 0.07 | 97 | 1008.9 |
| 20260510004045 | 43 | 15 | 0.0 | 5.0 | 0.00 | 0.07 | 0.07 | 97 | 1008.9 |
| 20260510003545 | 43 | 25 | 0.0 | 5.0 | 0.00 | 0.07 | 0.07 | 97 | 1009.0 |
| 20260510003057 | 43 | 0 | 1.0 | 3.0 | 0.00 | 0.07 | 0.07 | 97 | 1008.8 |
| 20260510002550 | 43 | 349 | 0.0 | 4.0 | 0.00 | 0.07 | 0.07 | 97 | 1008.7 |
| 20260510002045 | 43 | 357 | 1.0 | 4.0 | 0.00 | 0.07 | 0.07 | 97 | 1008.6 |
| 20260510001554 | 43 | 290 | 1.0 | 4.0 | 0.00 | 0.07 | 0.07 | 97 | 1008.6 |
| 20260510001045 | 43 | 308 | 0.0 | 2.0 | 0.00 | 0.07 | 0.07 | 97 | 1008.7 |
| 20260510000545 | 43 | 193 | 0.0 | 3.0 | 0.00 | 0.07 | 0.07 | 97 | 1008.7 |
| 20260510000104 | 43 | 0 | 0.0 | 3.0 | 0.00 | 0.07 | 0.07 | 97 | 1008.8 |
| 20260509235548 | 43 | 17 | 1.0 | 3.0 | 0.00 | 0.07 | 0.07 | 97 | 1008.5 |
| 20260509235045 | 43 | 334 | 0.0 | 3.0 | 0.00 | 0.07 | 0.07 | 97 | 1008.3 |
| 20260509234603 | 43 | 331 | 1.0 | 3.0 | 0.00 | 0.07 | 0.07 | 97 | 1008.3 |
| 20260509234049 | 43 | 259 | 0.0 | 4.0 | 0.00 | 0.07 | 0.07 | 97 | 1008.3 |
| 20260509233546 | 43 | 37 | 1.0 | 4.0 | 0.00 | 0.07 | 0.07 | 97 | 1008.5 |
| 20260509233054 | 43 | 280 | 0.0 | 1.0 | 0.00 | 0.07 | 0.07 | 97 | 1008.5 |
| 20260509232545 | 43 | 20 | 0.0 | 1.0 | 0.00 | 0.07 | 0.07 | 97 | 1008.5 |
| 20260509232046 | 43 | 0 | 0.0 | 1.0 | 0.00 | 0.07 | 0.07 | 97 | 1008.5 |
| 20260509231555 | 43 | 0 | 0.0 | 4.0 | 0.00 | 0.07 | 0.07 | 97 | 1008.5 |
| 20260509231045 | 43 | 290 | 1.0 | 4.0 | 0.00 | 0.07 | 0.07 | 97 | 1008.5 |